Time,TemperatureF,DewpointF,PressureIn,WindDirection,WindDirectionDegrees,WindSpeedMPH,WindSpeedGustMPH,Humidity,HourlyPrecipIn,Conditions,Clouds,dailyrainin,SoftwareType,DateUTC
2015-03-06 00:22:00,4.0,-1.0,-100.00,North,0,1.0,4.0,79,-99.99,,,-99.99,,2015-03-06 05:22:00,
2015-03-06 00:52:00,2.0,-3.0,-100.00,NNW,327,1.0,5.0,80,-99.99,,,-99.99,,2015-03-06 05:52:00,
2015-03-06 01:23:00,2.0,-3.0,-100.00,North,6,1.0,4.0,81,-99.99,,,-99.99,,2015-03-06 06:23:00,
2015-03-06 01:52:00,1.0,-3.0,-100.00,NE,51,0.0,1.0,82,-99.99,,,-99.99,,2015-03-06 06:52:00,
2015-03-06 02:02:00,1.0,-3.0,-100.00,NE,51,0.0,1.0,82,-99.99,,,-99.99,,2015-03-06 07:02:00,
2015-03-06 02:12:00,1.0,-3.0,-100.00,NE,51,0.0,1.0,82,-99.99,,,-99.99,,2015-03-06 07:12:00,
2015-03-06 02:22:00,1.0,-3.0,-100.00,NE,51,0.0,1.0,82,-99.99,,,-99.99,,2015-03-06 07:22:00,
2015-03-06 02:52:00,0.0,-4.0,-100.00,NNW,331,1.0,3.0,82,-99.99,,,-99.99,,2015-03-06 07:52:00,
2015-03-06 03:02:00,0.0,-4.0,-100.00,NNW,331,1.0,3.0,82,-99.99,,,-99.99,,2015-03-06 08:02:00,
2015-03-06 03:12:00,0.0,-4.0,-100.00,NNW,331,1.0,3.0,82,-99.99,,,-99.99,,2015-03-06 08:12:00,
2015-03-06 03:52:00,-3.0,-6.0,-100.00,ESE,114,2.0,4.0,82,-99.99,,,-99.99,,2015-03-06 08:52:00,
2015-03-06 04:22:00,-2.0,-6.0,-100.00,SE,134,0.0,4.0,82,-99.99,,,-99.99,,2015-03-06 09:22:00,
2015-03-06 04:53:00,-2.0,-6.0,-100.00,ESE,123,1.0,4.0,82,-99.99,,,-99.99,,2015-03-06 09:53:00,
2015-03-06 05:23:00,-3.0,-7.0,-100.00,ESE,122,1.0,3.0,82,-99.99,,,-99.99,,2015-03-06 10:23:00,
2015-03-06 05:53:00,-3.0,-6.0,-100.00,ESE,116,1.0,5.0,82,-99.99,,,-99.99,,2015-03-06 10:53:00,
2015-03-06 06:23:00,-3.0,-7.0,-100.00,North,0,1.0,6.0,82,-99.99,,,-99.99,,2015-03-06 11:23:00,
2015-03-06 06:52:00,-2.0,-6.0,-100.00,SSE,162,1.0,6.0,82,-99.99,,,-99.99,,2015-03-06 11:52:00,
2015-03-06 07:22:00,-4.0,-8.0,-100.00,ESE,120,1.0,5.0,81,-99.99,,,-99.99,,2015-03-06 12:22:00,
2015-03-06 07:52:00,-3.0,-8.0,-100.00,SE,129,2.0,6.0,81,-99.99,,,-99.99,,2015-03-06 12:52:00,
2015-03-06 08:22:00,-1.0,-5.0,-100.00,SE,137,2.0,6.0,82,-99.99,,,-99.99,,2015-03-06 13:22:00,
2015-03-06 08:52:00,3.0,-1.0,-100.00,SE,143,1.0,5.0,83,-99.99,,,-99.99,,2015-03-06 13:52:00,
2015-03-06 09:22:00,7.0,1.0,-100.00,North,0,1.0,5.0,82,-99.99,,,-99.99,,2015-03-06 14:22:00,
2015-03-06 09:52:00,11.0,6.0,-100.00,North,0,1.0,7.0,78,-99.99,,,-99.99,,2015-03-06 14:52:00,
2015-03-06 10:22:00,13.0,6.0,-100.00,WNW,303,2.0,7.0,72,-99.99,,,-99.99,,2015-03-06 15:22:00,
2015-03-06 10:54:00,17.0,5.0,-100.00,SSW,195,6.0,12.0,60,-99.99,,,-99.99,,2015-03-06 15:54:00,
2015-03-06 11:23:00,18.0,5.0,-100.00,SSW,203,6.0,14.0,56,-99.99,,,-99.99,,2015-03-06 16:23:00,
2015-03-06 11:53:00,19.0,4.0,-100.00,SW,235,7.0,13.0,52,-99.99,,,-99.99,,2015-03-06 16:53:00,